"read_dt","SO2 (ppb)","flags","PMT voltage (V)","lamp voltage (V)","lamp intensity (Hz)","internal temp (C)","react chamber temp (C)","sample flow (l/min)","pres (mmHg)","SO2 bkg (ppb)","SO2 coefficient"
2016-09-14 00:00:00,2272E-3,5C000400,-0723,0822,12301,027.3,045.4,0.256,764.8,01.16,0.508
2016-09-14 00:01:00,2273E-3,5C000400,-0723,0822,12234,027.3,045.4,0.256,764.8,01.16,0.508
2016-09-14 00:02:00,2344E-3,5C000400,-0723,0823,12439,027.3,045.4,0.256,764.7,01.16,0.508
2016-09-14 00:03:00,2118E-3,5C000400,-0723,0822,12346,027.3,045.4,0.256,764.7,01.16,0.508
2016-09-14 00:04:00,2163E-3,5C000400,-0723,0822,12254,027.3,045.4,0.256,764.7,01.16,0.508
2016-09-14 00:05:00,2305E-3,5C000400,-0723,0823,12238,027.3,045.5,0.256,764.7,01.16,0.508
2016-09-14 00:06:00,2178E-3,5C000400,-0723,0823,12301,027.4,045.5,0.256,764.7,01.16,0.508
2016-09-14 00:07:00,2287E-3,5C000400,-0723,0822,12255,027.3,045.5,0.256,764.7,01.16,0.508
2016-09-14 00:08:00,2117E-3,5C000400,-0723,0823,12295,027.4,045.4,0.256,764.8,01.16,0.508
2016-09-14 00:09:00,2155E-3,5C000400,-0723,0823,12213,027.4,045.4,0.256,764.8,01.16,0.508
2016-09-14 00:10:00,2249E-3,5C000400,-0723,0821,12168,027.4,045.4,0.256,764.8,01.16,0.508
2016-09-14 00:11:00,2182E-3,5C000400,-0723,0822,12327,027.4,045.4,0.256,764.8,01.16,0.508
2016-09-14 00:12:00,2117E-3,5C000400,-0723,0822,12232,027.4,045.4,0.256,764.8,01.16,0.508
2016-09-14 00:13:00,2039E-3,5C000400,-0723,0822,12315,027.4,045.4,0.256,764.8,01.16,0.508
2016-09-14 00:14:00,2061E-3,5C000400,-0723,0822,12188,027.4,045.4,0.256,764.8,01.16,0.508
2016-09-14 00:15:00,2266E-3,5C000400,-0723,0822,12215,027.4,045.4,0.256,764.8,01.16,0.508
2016-09-14 00:16:00,2216E-3,5C000400,-0723,0822,12140,027.4,045.4,0.256,764.8,01.16,0.508
2016-09-14 00:17:00,2221E-3,5C000400,-0723,0822,12257,027.4,045.4,0.256,764.9,01.16,0.508
2016-09-14 00:18:00,2212E-3,5C000400,-0723,0823,12290,027.4,045.5,0.256,764.8,01.16,0.508
2016-09-14 00:19:00,2308E-3,5C000400,-0723,0822,12222,027.4,045.4,0.256,764.8,01.16,0.508
2016-09-14 00:20:00,2284E-3,5C000400,-0723,0823,12209,027.4,045.4,0.256,764.8,01.16,0.508
2016-09-14 00:21:00,2245E-3,5C000400,-0723,0823,12281,027.4,045.4,0.256,764.7,01.16,0.508
2016-09-14 00:22:00,2237E-3,5C000400,-0723,0822,12270,027.4,045.4,0.256,764.7,01.16,0.508
2016-09-14 00:23:00,2139E-3,5C000400,-0723,0822,12349,027.4,045.4,0.256,764.7,01.16,0.508
2016-09-14 00:24:00,2293E-3,5C000400,-0723,0822,12147,027.4,045.4,0.256,764.7,01.16,0.508
2016-09-14 00:25:00,2028E-3,5C000400,-0723,0823,12319,027.4,045.4,0.256,764.8,01.16,0.508
2016-09-14 00:26:00,2216E-3,5C000400,-0723,0823,12334,027.4,045.4,0.256,764.8,01.16,0.508
2016-09-14 00:27:00,2168E-3,5C000400,-0723,0822,12286,027.4,045.4,0.256,764.7,01.16,0.508
2016-09-14 00:28:00,2235E-3,5C000400,-0723,0822,12345,027.4,045.4,0.256,764.7,01.16,0.508
2016-09-14 00:29:00,2110E-3,5C000400,-0723,0822,12255,027.4,045.4,0.256,764.7,01.16,0.508
2016-09-14 00:30:00,2310E-3,5C000400,-0723,0822,12299,027.5,045.5,0.256,764.7,01.16,0.508
2016-09-14 00:31:00,2236E-3,5C000400,-0723,0822,12209,027.4,045.5,0.256,764.7,01.16,0.508
2016-09-14 00:32:00,2199E-3,5C000400,-0723,0822,12333,027.5,045.4,0.256,764.7,01.16,0.508
2016-09-14 00:33:00,2134E-3,5C000400,-0723,0822,12090,027.6,045.4,0.256,764.7,01.16,0.508
2016-09-14 00:34:00,2142E-3,5C000400,-0723,0822,12318,027.7,045.4,0.256,764.7,01.16,0.508
2016-09-14 00:35:00,2062E-3,5C000400,-0723,0823,12371,027.7,045.5,0.256,764.7,01.16,0.508
2016-09-14 00:36:00,2143E-3,5C000400,-0723,0821,12233,027.8,045.4,0.255,764.7,01.16,0.508
2016-09-14 00:37:00,2311E-3,5C000400,-0723,0823,12277,027.8,045.4,0.255,764.7,01.16,0.508
2016-09-14 00:38:00,2135E-3,5C000400,-0723,0822,12233,027.8,045.4,0.255,764.6,01.16,0.508
2016-09-14 00:39:00,2164E-3,5C000400,-0723,0823,12233,027.9,045.4,0.255,764.8,01.16,0.508
2016-09-14 00:40:00,2237E-3,5C000400,-0723,0822,12292,027.9,045.5,0.254,764.9,01.16,0.508
2016-09-14 00:41:00,2152E-3,5C000400,-0723,0823,12183,027.9,045.5,0.255,764.9,01.16,0.508
2016-09-14 00:42:00,2122E-3,5C000400,-0723,0822,12199,027.9,045.5,0.254,764.9,01.16,0.508
2016-09-14 00:43:00,2120E-3,5C000400,-0723,0822,12217,028.0,045.5,0.254,764.9,01.16,0.508
2016-09-14 00:44:00,2157E-3,5C000400,-0723,0822,12297,028.0,045.5,0.254,764.9,01.16,0.508
2016-09-14 00:45:00,2229E-3,5C000400,-0723,0821,12289,028.1,045.5,0.254,764.9,01.16,0.508
2016-09-14 00:46:00,2310E-3,5C000400,-0723,0822,12296,028.1,045.5,0.254,764.9,01.16,0.508
2016-09-14 00:47:00,2113E-3,5C000400,-0723,0822,12244,028.1,045.5,0.254,764.9,01.16,0.508
2016-09-14 00:48:00,1971E-3,5C000400,-0723,0822,12272,028.1,045.5,0.254,764.9,01.16,0.508
2016-09-14 00:49:00,2171E-3,5C000400,-0723,0822,12144,028.1,045.5,0.254,764.9,01.16,0.508
2016-09-14 00:50:00,2129E-3,5C000400,-0723,0822,12218,028.2,045.5,0.254,764.9,01.16,0.508
2016-09-14 00:51:00,2279E-3,5C000400,-0723,0822,12221,028.1,045.5,0.254,764.9,01.16,0.508
2016-09-14 00:52:00,2195E-3,5C000400,-0723,0822,12300,028.2,045.5,0.254,764.9,01.16,0.508
2016-09-14 00:53:00,2169E-3,5C000400,-0723,0822,12241,028.2,045.5,0.254,764.9,01.16,0.508
2016-09-14 00:54:00,2102E-3,5C000400,-0723,0822,12127,028.2,045.5,0.254,764.9,01.16,0.508
2016-09-14 00:55:00,2073E-3,5C000400,-0723,0823,12186,028.2,045.5,0.253,764.9,01.16,0.508
2016-09-14 00:56:00,2075E-3,5C000400,-0723,0823,12108,028.2,045.5,0.253,764.9,01.16,0.508
2016-09-14 00:57:00,2229E-3,5C000400,-0723,0822,12184,028.2,045.5,0.254,764.9,01.16,0.508
2016-09-14 00:58:00,2169E-3,5C000400,-0723,0823,12373,028.2,045.4,0.254,764.9,01.16,0.508
2016-09-14 00:59:00,2218E-3,5C000400,-0723,0823,12353,028.2,045.5,0.254,764.9,01.16,0.508
2016-09-14 01:00:00,2229E-3,5C000400,-0723,0823,12444,028.2,045.5,0.254,764.9,01.16,0.508
2016-09-14 01:01:00,2183E-3,5C000400,-0723,0823,12244,028.3,045.4,0.254,764.9,01.16,0.508
2016-09-14 01:02:00,2140E-3,5C000400,-0723,0823,12145,028.2,045.4,0.254,764.9,01.16,0.508
2016-09-14 01:03:00,2269E-3,5C000400,-0723,0822,12254,028.3,045.5,0.254,764.9,01.16,0.508
2016-09-14 01:04:00,2192E-3,5C000400,-0723,0823,12287,028.3,045.5,0.254,764.9,01.16,0.508
2016-09-14 01:05:00,2246E-3,5C000400,-0723,0823,12159,028.3,045.5,0.254,764.9,01.16,0.508
2016-09-14 01:06:00,2196E-3,5C000400,-0723,0823,12358,028.3,045.5,0.254,764.9,01.16,0.508
2016-09-14 01:07:00,2161E-3,5C000400,-0723,0822,12352,028.3,045.5,0.254,764.9,01.16,0.508
2016-09-14 01:08:00,2181E-3,5C000400,-0723,0822,12234,028.3,045.5,0.254,764.9,01.16,0.508
2016-09-14 01:09:00,2261E-3,5C000400,-0723,0823,12366,028.3,045.5,0.254,764.9,01.16,0.508
2016-09-14 01:10:00,2258E-3,5C000400,-0723,0823,12277,028.3,045.5,0.254,764.9,01.16,0.508
2016-09-14 01:11:00,2157E-3,5C000400,-0723,0823,12199,028.3,045.5,0.254,764.9,01.16,0.508
2016-09-14 01:12:00,2107E-3,5C000400,-0723,0823,12153,028.4,045.5,0.253,764.9,01.16,0.508
2016-09-14 01:13:00,2156E-3,5C000400,-0723,0823,12185,028.4,045.5,0.253,764.9,01.16,0.508
2016-09-14 01:14:00,2223E-3,5C000400,-0723,0822,12201,028.4,045.5,0.254,764.9,01.16,0.508
2016-09-14 01:15:00,2220E-3,5C000400,-0723,0821,12172,028.4,045.5,0.253,764.9,01.16,0.508
2016-09-14 01:16:00,2081E-3,5C000400,-0723,0822,12227,028.5,045.5,0.253,764.9,01.16,0.508
2016-09-14 01:17:00,2139E-3,5C000400,-0723,0822,12124,028.5,045.5,0.254,764.9,01.16,0.508
2016-09-14 01:18:00,2179E-3,5C000400,-0723,0822,12249,028.4,045.5,0.253,764.9,01.16,0.508
2016-09-14 01:19:00,2186E-3,5C000400,-0723,0821,12217,028.5,045.5,0.253,764.9,01.16,0.508
2016-09-14 01:20:00,2308E-3,5C000400,-0723,0823,12117,028.5,045.4,0.253,764.9,01.16,0.508
2016-09-14 01:21:00,2180E-3,5C000400,-0723,0823,12352,028.5,045.5,0.253,764.9,01.16,0.508
2016-09-14 01:22:00,2220E-3,5C000400,-0723,0822,12022,028.5,045.5,0.253,764.9,01.16,0.508
2016-09-14 01:23:00,2137E-3,5C000400,-0723,0823,12212,028.5,045.5,0.253,764.9,01.16,0.508
2016-09-14 01:24:00,2249E-3,5C000400,-0723,0823,12305,028.5,045.5,0.253,764.9,01.16,0.508
2016-09-14 01:25:00,2128E-3,5C000400,-0723,0822,12236,028.5,045.5,0.253,764.9,01.16,0.508
2016-09-14 01:26:00,2238E-3,5C000400,-0723,0823,12266,028.5,045.5,0.253,764.9,01.16,0.508
2016-09-14 01:27:00,2258E-3,5C000400,-0723,0822,12252,028.6,045.5,0.253,764.9,01.16,0.508
2016-09-14 01:28:00,2304E-3,5C000400,-0723,0822,12118,028.6,045.5,0.253,764.9,01.16,0.508
2016-09-14 01:29:00,2190E-3,5C000400,-0723,0822,12295,028.6,045.5,0.253,764.9,01.16,0.508
2016-09-14 01:30:00,2218E-3,5C000400,-0723,0822,12036,028.6,045.5,0.253,764.9,01.16,0.508
2016-09-14 01:31:00,2244E-3,5C000400,-0723,0822,12164,028.6,045.5,0.253,764.9,01.16,0.508
2016-09-14 01:32:00,2278E-3,5C000400,-0723,0823,12297,028.6,045.5,0.253,764.9,01.16,0.508
2016-09-14 01:33:00,2271E-3,5C000400,-0723,0823,12240,028.7,045.5,0.253,764.9,01.16,0.508
2016-09-14 01:34:00,2191E-3,5C000400,-0723,0823,12193,028.7,045.5,0.253,764.9,01.16,0.508
2016-09-14 01:35:00,2199E-3,5C000400,-0723,0823,12151,028.7,045.5,0.253,764.9,01.16,0.508
2016-09-14 01:36:00,2349E-3,5C000400,-0723,0823,12196,028.7,045.5,0.252,764.9,01.16,0.508
2016-09-14 01:37:00,2311E-3,5C000400,-0723,0823,12354,028.7,045.5,0.252,764.9,01.16,0.508
2016-09-14 01:38:00,2158E-3,5C000400,-0723,0823,12220,028.7,045.5,0.253,764.9,01.16,0.508
2016-09-14 01:39:00,2121E-3,5C000400,-0723,0823,12219,028.7,045.5,0.253,764.9,01.16,0.508
2016-09-14 01:40:00,2250E-3,5C000400,-0723,0823,12311,028.7,045.5,0.253,764.9,01.16,0.508
2016-09-14 01:41:00,2332E-3,5C000400,-0723,0823,12232,028.7,045.5,0.253,764.9,01.16,0.508
2016-09-14 01:42:00,2411E-3,5C000400,-0723,0822,12252,028.7,045.5,0.253,764.9,01.16,0.508
2016-09-14 01:43:00,2151E-3,5C000400,-0723,0823,12197,028.8,045.5,0.253,764.9,01.16,0.508
2016-09-14 01:44:00,2345E-3,5C000400,-0723,0823,12175,028.8,045.5,0.252,764.9,01.16,0.508
2016-09-14 01:45:00,2244E-3,5C000400,-0723,0822,12247,028.8,045.5,0.252,764.9,01.16,0.508
2016-09-14 01:46:00,2245E-3,5C000400,-0723,0822,12198,028.8,045.4,0.253,764.9,01.16,0.508
2016-09-14 01:47:00,2205E-3,5C000400,-0723,0822,12249,028.9,045.5,0.253,764.9,01.16,0.508
2016-09-14 01:48:00,2092E-3,5C000400,-0723,0823,12228,028.8,045.5,0.253,764.9,01.16,0.508
2016-09-14 01:49:00,2194E-3,5C000400,-0723,0823,12087,028.9,045.5,0.253,764.9,01.16,0.508
2016-09-14 01:50:00,2279E-3,5C000400,-0723,0823,12369,028.9,045.5,0.252,764.9,01.16,0.508
2016-09-14 01:51:00,2323E-3,5C000400,-0723,0823,12202,028.9,045.5,0.252,764.9,01.16,0.508
2016-09-14 01:52:00,2060E-3,5C000400,-0723,0822,12325,028.9,045.5,0.252,764.9,01.16,0.508
2016-09-14 01:53:00,2152E-3,5C000400,-0723,0823,12119,028.9,045.5,0.253,764.9,01.16,0.508
2016-09-14 01:54:00,2239E-3,5C000400,-0723,0823,12279,029.0,045.5,0.252,764.9,01.16,0.508
2016-09-14 01:55:00,2372E-3,5C000400,-0723,0823,12368,028.9,045.5,0.252,764.9,01.16,0.508
2016-09-14 01:56:00,2232E-3,5C000400,-0723,0822,12201,028.9,045.5,0.252,764.9,01.16,0.508
2016-09-14 01:57:00,2276E-3,5C000400,-0723,0822,12306,029.0,045.5,0.252,764.9,01.16,0.508
2016-09-14 01:58:00,2356E-3,5C000400,-0723,0823,12288,029.0,045.5,0.252,764.9,01.16,0.508
2016-09-14 01:59:00,2212E-3,5C000400,-0723,0823,12310,029.1,045.5,0.252,764.9,01.16,0.508
2016-09-14 02:00:00,2202E-3,5C000400,-0723,0822,12024,029.0,045.5,0.252,764.9,01.16,0.508
2016-09-14 02:01:00,2255E-3,5C000400,-0723,0823,12361,029.0,045.5,0.252,764.9,01.16,0.508
2016-09-14 02:02:00,2367E-3,5C000400,-0723,0823,12112,029.1,045.5,0.252,764.9,01.16,0.508
2016-09-14 02:03:00,2237E-3,5C000400,-0723,0823,12205,029.0,045.5,0.252,764.9,01.16,0.508
2016-09-14 02:04:00,2361E-3,5C000400,-0723,0823,12224,029.1,045.5,0.252,764.9,01.16,0.508
2016-09-14 02:05:00,2197E-3,5C000400,-0723,0823,12123,029.1,045.5,0.252,764.9,01.16,0.508
2016-09-14 02:06:00,2147E-3,5C000400,-0723,0823,12227,029.1,045.5,0.252,764.8,01.16,0.508
2016-09-14 02:07:00,2233E-3,5C000400,-0723,0823,12093,029.1,045.5,0.252,764.8,01.16,0.508
2016-09-14 02:08:00,2277E-3,5C000400,-0723,0823,12162,029.1,045.5,0.252,764.8,01.16,0.508
2016-09-14 02:09:00,2137E-3,5C000400,-0723,0823,12068,029.1,045.5,0.252,764.8,01.16,0.508
2016-09-14 02:10:00,2175E-3,5C000400,-0723,0822,12197,029.1,045.5,0.252,764.8,01.16,0.508
2016-09-14 02:11:00,2223E-3,5C000400,-0723,0823,12213,029.1,045.5,0.252,764.8,01.16,0.508
2016-09-14 02:12:00,2299E-3,5C000400,-0723,0822,12146,029.1,045.5,0.252,764.8,01.16,0.508
2016-09-14 02:13:00,2137E-3,5C000400,-0723,0822,12355,029.0,045.5,0.252,764.8,01.16,0.508
2016-09-14 02:14:00,2297E-3,5C000400,-0723,0823,12330,029.1,045.5,0.252,764.8,01.16,0.508
2016-09-14 02:15:00,2204E-3,5C000400,-0723,0823,12203,029.0,045.5,0.252,764.8,01.16,0.508
2016-09-14 02:16:00,2221E-3,5C000400,-0723,0822,12316,029.1,045.5,0.252,764.9,01.16,0.508
2016-09-14 02:17:00,2078E-3,5C000400,-0723,0823,12151,029.1,045.5,0.252,764.9,01.16,0.508
2016-09-14 02:18:00,2271E-3,5C000400,-0723,0822,12258,029.1,045.5,0.252,764.8,01.16,0.508
2016-09-14 02:19:00,2356E-3,5C000400,-0723,0823,12215,029.1,045.5,0.252,764.9,01.16,0.508
2016-09-14 02:20:00,2268E-3,5C000400,-0723,0823,12249,029.1,045.5,0.252,764.9,01.16,0.508
2016-09-14 02:21:00,2295E-3,5C000400,-0723,0823,12234,029.1,045.5,0.252,764.8,01.16,0.508
2016-09-14 02:22:00,2234E-3,5C000400,-0723,0824,12239,029.1,045.5,0.252,764.8,01.16,0.508
2016-09-14 02:23:00,2286E-3,5C000400,-0723,0823,12077,029.1,045.5,0.252,764.8,01.16,0.508
2016-09-14 02:24:00,2218E-3,5C000400,-0723,0822,12264,029.1,045.5,0.252,764.8,01.16,0.508
2016-09-14 02:25:00,2190E-3,5C000400,-0723,0823,12191,029.2,045.5,0.252,764.8,01.16,0.508
2016-09-14 02:26:00,2276E-3,5C000400,-0723,0823,12180,029.2,045.5,0.252,764.8,01.16,0.508
2016-09-14 02:27:00,2297E-3,5C000400,-0723,0822,12227,029.2,045.5,0.252,764.8,01.16,0.508
2016-09-14 02:28:00,2252E-3,5C000400,-0723,0823,12233,029.2,045.5,0.252,764.8,01.16,0.508
2016-09-14 02:29:00,2345E-3,5C000400,-0723,0822,12212,029.2,045.5,0.252,764.8,01.16,0.508
2016-09-14 02:30:00,2276E-3,5C000400,-0723,0823,12056,029.2,045.5,0.252,764.8,01.16,0.508
2016-09-14 02:31:00,2295E-3,5C000400,-0723,0822,12306,029.2,045.5,0.252,764.8,01.16,0.508
2016-09-14 02:32:00,2279E-3,5C000400,-0723,0823,12320,029.2,045.5,0.252,764.8,01.16,0.508
2016-09-14 02:33:00,2267E-3,5C000400,-0723,0822,12281,029.2,045.4,0.251,764.8,01.16,0.508
2016-09-14 02:34:00,2182E-3,5C000400,-0723,0823,12273,029.2,045.5,0.252,764.8,01.16,0.508
2016-09-14 02:35:00,2163E-3,5C000400,-0723,0823,12390,029.3,045.5,0.252,764.8,01.16,0.508
2016-09-14 02:36:00,2254E-3,5C000400,-0723,0822,12260,029.2,045.5,0.252,764.8,01.16,0.508
2016-09-14 02:37:00,2270E-3,5C000400,-0723,0823,12331,029.3,045.5,0.252,764.8,01.16,0.508
2016-09-14 02:38:00,2204E-3,5C000400,-0723,0822,12286,029.3,045.5,0.252,764.8,01.16,0.508
2016-09-14 02:39:00,2401E-3,5C000400,-0723,0823,12203,029.2,045.5,0.251,764.8,01.16,0.508
2016-09-14 02:40:00,2219E-3,5C000400,-0723,0822,12183,029.3,045.5,0.252,764.8,01.16,0.508
2016-09-14 02:41:00,2072E-3,5C000400,-0723,0824,12263,029.3,045.5,0.252,764.8,01.16,0.508
2016-09-14 02:42:00,2197E-3,5C000400,-0723,0823,12123,029.3,045.5,0.252,764.8,01.16,0.508
2016-09-14 02:43:00,2314E-3,5C000400,-0723,0823,12297,029.3,045.5,0.252,764.8,01.16,0.508
2016-09-14 02:44:00,2215E-3,5C000400,-0723,0823,12232,029.2,045.5,0.252,764.8,01.16,0.508
2016-09-14 02:45:00,2307E-3,5C000400,-0723,0823,12489,029.3,045.5,0.251,764.8,01.16,0.508
2016-09-14 02:46:00,2292E-3,5C000400,-0723,0824,12293,029.3,045.5,0.252,764.8,01.16,0.508
2016-09-14 02:47:00,2156E-3,5C000400,-0723,0823,12176,029.3,045.5,0.252,764.8,01.16,0.508
2016-09-14 02:48:00,2281E-3,5C000400,-0723,0823,12345,029.3,045.5,0.252,764.8,01.16,0.508
2016-09-14 02:49:00,2151E-3,5C000400,-0723,0823,12316,029.3,045.5,0.251,764.8,01.16,0.508
2016-09-14 02:50:00,2351E-3,5C000400,-0723,0823,12214,029.3,045.5,0.252,764.8,01.16,0.508
2016-09-14 02:51:00,2351E-3,5C000400,-0723,0823,12337,029.3,045.5,0.252,764.8,01.16,0.508
2016-09-14 02:52:00,2250E-3,5C000400,-0723,0823,12260,029.3,045.5,0.252,764.8,01.16,0.508
2016-09-14 02:53:00,2285E-3,5C000400,-0723,0822,12249,029.3,045.5,0.252,764.8,01.16,0.508
2016-09-14 02:54:00,2182E-3,5C000400,-0723,0823,12209,029.3,045.5,0.251,764.8,01.16,0.508
2016-09-14 02:55:00,2308E-3,5C000400,-0723,0823,12244,029.3,045.5,0.251,764.8,01.16,0.508
2016-09-14 02:56:00,2263E-3,5C000400,-0723,0823,12184,029.3,045.5,0.252,764.8,01.16,0.508
2016-09-14 02:57:00,2261E-3,5C000400,-0723,0823,12288,029.3,045.5,0.252,764.8,01.16,0.508
2016-09-14 02:58:00,2252E-3,5C000400,-0723,0823,12300,029.3,045.5,0.252,764.8,01.16,0.508
2016-09-14 02:59:00,2190E-3,5C000400,-0723,0823,12344,029.3,045.5,0.252,764.8,01.16,0.508
2016-09-14 03:00:00,2242E-3,5C000400,-0723,0823,12156,029.3,045.5,0.252,764.8,01.16,0.508
2016-09-14 03:01:00,2302E-3,5C000400,-0723,0823,12264,029.4,045.5,0.251,764.8,01.16,0.508
2016-09-14 03:02:00,2328E-3,5C000400,-0723,0823,12315,029.4,045.5,0.251,764.8,01.16,0.508
2016-09-14 03:03:00,2453E-3,5C000400,-0723,0823,12297,029.3,045.5,0.252,764.8,01.16,0.508
2016-09-14 03:04:00,2273E-3,5C000400,-0723,0824,12391,029.3,045.5,0.252,764.8,01.16,0.508
2016-09-14 03:05:00,2245E-3,5C000400,-0723,0822,12195,029.4,045.5,0.252,764.8,01.16,0.508
2016-09-14 03:06:00,2199E-3,5C000400,-0723,0822,12297,029.4,045.5,0.251,764.8,01.16,0.508
2016-09-14 03:07:00,2330E-3,5C000400,-0723,0823,12261,029.4,045.5,0.251,764.8,01.16,0.508
2016-09-14 03:08:00,2225E-3,5C000400,-0723,0823,12224,029.4,045.5,0.251,764.8,01.16,0.508
2016-09-14 03:09:00,2153E-3,5C000400,-0723,0822,12240,029.4,045.5,0.252,764.8,01.16,0.508
2016-09-14 03:10:00,2270E-3,5C000400,-0723,0823,12239,029.4,045.5,0.252,764.8,01.16,0.508
2016-09-14 03:11:00,2160E-3,5C000400,-0723,0822,12038,029.3,045.5,0.252,764.8,01.16,0.508
2016-09-14 03:12:00,2339E-3,5C000400,-0723,0823,12199,029.4,045.5,0.251,764.8,01.16,0.508
2016-09-14 03:13:00,2264E-3,5C000400,-0723,0822,12080,029.4,045.5,0.251,764.8,01.16,0.508
2016-09-14 03:14:00,2136E-3,5C000400,-0723,0824,12322,029.4,045.5,0.252,764.8,01.16,0.508
2016-09-14 03:15:00,2299E-3,5C000400,-0723,0823,12159,029.4,045.5,0.252,764.8,01.16,0.508
2016-09-14 03:16:00,2198E-3,5C000400,-0723,0823,12224,029.4,045.5,0.251,764.8,01.16,0.508
2016-09-14 03:17:00,2234E-3,5C000400,-0723,0823,12324,029.4,045.5,0.251,764.8,01.16,0.508
2016-09-14 03:18:00,2287E-3,5C000400,-0723,0823,12144,029.4,045.5,0.251,764.8,01.16,0.508
2016-09-14 03:19:00,2289E-3,5C000400,-0723,0823,12244,029.4,045.5,0.252,764.8,01.16,0.508
2016-09-14 03:20:00,2354E-3,5C000400,-0723,0823,12257,029.4,045.5,0.252,764.8,01.16,0.508
2016-09-14 03:21:00,2278E-3,5C000400,-0723,0823,12217,029.4,045.5,0.251,764.8,01.16,0.508
2016-09-14 03:22:00,2326E-3,5C000400,-0723,0823,12188,029.4,045.5,0.251,764.8,01.16,0.508
2016-09-14 03:23:00,2244E-3,5C000400,-0723,0822,12315,029.4,045.5,0.251,764.8,01.16,0.508
2016-09-14 03:24:00,2295E-3,5C000400,-0723,0823,12310,029.3,045.5,0.251,764.8,01.16,0.508
2016-09-14 03:25:00,2354E-3,5C000400,-0723,0822,12296,029.3,045.5,0.252,764.8,01.16,0.508
2016-09-14 03:26:00,2236E-3,5C000400,-0723,0823,12359,029.3,045.5,0.251,764.8,01.16,0.508
2016-09-14 03:27:00,2429E-3,5C000400,-0723,0823,12135,029.3,045.5,0.252,764.7,01.16,0.508
2016-09-14 03:28:00,2402E-3,5C000400,-0723,0823,12221,029.3,045.5,0.252,764.7,01.16,0.508
2016-09-14 03:29:00,2155E-3,5C000400,-0723,0823,12246,029.4,045.5,0.251,764.8,01.16,0.508
2016-09-14 03:30:00,2244E-3,5C000400,-0723,0823,12255,029.3,045.5,0.251,764.8,01.16,0.508
2016-09-14 03:31:00,2381E-3,5C000400,-0723,0822,12339,029.4,045.5,0.252,764.7,01.16,0.508
2016-09-14 03:32:00,2269E-3,5C000400,-0723,0823,12312,029.4,045.5,0.252,764.8,01.16,0.508
2016-09-14 03:33:00,2340E-3,5C000400,-0723,0824,12186,029.3,045.5,0.252,764.8,01.16,0.508
2016-09-14 03:34:00,2341E-3,5C000400,-0723,0823,12221,029.4,045.5,0.252,764.8,01.16,0.508
2016-09-14 03:35:00,2306E-3,5C000400,-0723,0823,12288,029.5,045.5,0.253,764.8,01.16,0.508
2016-09-14 03:36:00,2448E-3,5C000400,-0723,0823,12269,029.4,045.5,0.253,764.7,01.16,0.508
2016-09-14 03:37:00,2226E-3,5C000400,-0723,0823,12287,029.4,045.5,0.252,764.7,01.16,0.508
2016-09-14 03:38:00,2187E-3,5C000400,-0723,0822,12203,029.4,045.5,0.252,764.8,01.16,0.508
2016-09-14 03:39:00,2255E-3,5C000400,-0723,0823,12225,029.4,045.5,0.252,764.8,01.16,0.508
2016-09-14 03:40:00,2294E-3,5C000400,-0723,0823,12210,029.4,045.5,0.252,764.8,01.16,0.508
2016-09-14 03:41:00,2307E-3,5C000400,-0723,0823,12237,029.4,045.5,0.252,764.8,01.16,0.508
2016-09-14 03:42:00,2224E-3,5C000400,-0723,0823,12324,029.4,045.5,0.252,764.8,01.16,0.508
2016-09-14 03:43:00,2201E-3,5C000400,-0723,0823,12219,029.5,045.5,0.252,764.8,01.16,0.508
2016-09-14 03:44:00,2363E-3,5C000400,-0723,0823,12167,029.4,045.5,0.252,764.8,01.16,0.508
2016-09-14 03:45:00,2374E-3,5C000400,-0723,0823,12257,029.4,045.5,0.252,764.8,01.16,0.508
2016-09-14 03:46:00,2212E-3,5C000400,-0723,0822,12270,029.5,045.5,0.252,764.8,01.16,0.508
2016-09-14 03:47:00,2172E-3,5C000400,-0723,0823,12266,029.5,045.5,0.272,762.5,01.16,0.508
2016-09-14 03:48:00,2223E-3,5C000400,-0723,0823,12291,029.5,045.5,0.271,762.5,01.16,0.508
2016-09-14 03:49:00,2357E-3,5C000400,-0723,0823,12165,029.5,045.5,0.245,762.9,01.16,0.508
2016-09-14 03:50:00,2299E-3,5C000000,-0723,0823,12178,029.5,045.5,0.455,746.7,01.17,0.508
2016-09-14 03:51:00,2393E-3,5C000000,-0723,0823,12227,029.6,045.5,0.457,746.8,01.17,0.508
2016-09-14 03:52:00,2313E-3,5C000000,-0723,0822,12071,029.7,045.5,0.456,746.8,01.17,0.508
2016-09-14 03:53:00,2334E-3,5C000000,-0723,0823,12236,029.9,045.5,0.455,746.8,01.17,0.508
2016-09-14 03:54:00,2312E-3,5C000000,-0723,0823,12163,029.9,045.5,0.455,746.8,01.17,0.508
2016-09-14 03:55:00,2359E-3,5C000000,-0723,0824,12229,030.0,045.5,0.455,746.8,01.17,0.508
2016-09-14 03:56:00,2360E-3,5C000000,-0723,0823,12287,030.0,045.5,0.455,746.8,01.17,0.508
2016-09-14 03:57:00,2222E-3,5C000000,-0723,0823,12259,030.0,045.5,0.455,746.8,01.17,0.508
2016-09-14 03:58:00,2134E-3,5C000000,-0723,0823,12316,030.0,045.5,0.455,746.8,01.17,0.508
2016-09-14 03:59:00,2361E-3,5C000000,-0723,0823,12286,029.9,045.5,0.455,746.9,01.17,0.508
2016-09-14 04:00:00,2351E-3,5C000000,-0723,0824,12235,029.9,045.5,0.455,746.8,01.17,0.508
2016-09-14 04:01:00,2178E-3,5C000000,-0723,0823,12205,029.8,045.5,0.455,746.9,01.17,0.508
2016-09-14 04:02:00,2278E-3,5C000000,-0723,0823,12254,029.8,045.5,0.455,746.9,01.17,0.508
2016-09-14 04:03:00,2185E-3,5C000000,-0723,0823,12226,029.8,045.5,0.455,746.9,01.17,0.508
2016-09-14 04:04:00,2161E-3,5C000000,-0723,0823,12246,029.8,045.5,0.455,746.9,01.17,0.508
2016-09-14 04:05:00,2241E-3,5C000000,-0723,0823,12133,029.8,045.5,0.455,746.9,01.17,0.508
2016-09-14 04:06:00,2285E-3,5C000000,-0723,0823,12284,029.8,045.5,0.455,746.9,01.17,0.508
2016-09-14 04:07:00,2238E-3,5C000000,-0723,0824,12185,029.7,045.5,0.455,746.9,01.17,0.508
2016-09-14 04:08:00,2189E-3,5C000000,-0723,0823,12361,029.8,045.5,0.455,746.9,01.17,0.508
2016-09-14 04:09:00,2205E-3,5C000000,-0723,0823,12412,029.7,045.5,0.455,746.9,01.17,0.508
2016-09-14 04:10:00,2263E-3,5C000000,-0723,0824,12355,029.7,045.5,0.455,746.9,01.17,0.508
2016-09-14 04:11:00,2275E-3,5C000000,-0723,0823,12320,029.7,045.5,0.455,746.9,01.17,0.508
2016-09-14 04:12:00,2249E-3,5C000000,-0723,0823,12352,029.7,045.5,0.455,746.9,01.17,0.508
2016-09-14 04:13:00,2286E-3,5C000000,-0723,0824,12321,029.7,045.5,0.455,746.9,01.17,0.508
2016-09-14 04:14:00,2185E-3,5C000000,-0723,0823,12242,029.7,045.5,0.455,746.9,01.17,0.508
2016-09-14 04:15:00,2249E-3,5C000000,-0723,0823,12320,029.8,045.5,0.455,746.9,01.17,0.508
2016-09-14 04:16:00,2169E-3,5C000000,-0723,0823,12237,029.7,045.5,0.455,746.9,01.17,0.508
2016-09-14 04:17:00,2118E-3,5C000000,-0723,0823,12052,029.7,045.5,0.455,746.9,01.17,0.508
2016-09-14 04:18:00,2247E-3,5C000000,-0723,0822,12219,029.7,045.5,0.455,746.9,01.17,0.508
2016-09-14 04:19:00,2137E-3,5C000000,-0723,0823,12354,029.7,045.5,0.455,746.9,01.17,0.508
2016-09-14 04:20:00,2359E-3,5C000000,-0723,0824,12204,029.7,045.5,0.455,747.0,01.17,0.508